Simultaneous Nadir Overpasses (SNOs) Predictions

Prediction of SNOs near equator between AQUA and NPP Satellite Orbit:

Table of predicted SNOs near equator for the next 14.0 days since TLE Epoch: 3/5/2022
Index Date (AQUA) Time (AQUA) AQUA Lat,Lon Date (NPP) Time (NPP) NPP Lat,Lon Distance(km) Time Diff (sec)
1 03/06/2022 00:08:16 3.41,-158.33 03/05/2022 23:59:02 3.27,-158.94 69.07 554
2 03/06/2022 00:56:23 1.13, 10.30 03/06/2022 00:48:25 1.29, 9.41 99.57 478
3 03/08/2022 15:35:51 -6.06, 149.40 03/08/2022 15:25:54 -5.96, 148.93 52.84 597
4 03/08/2022 16:24:06 1.48, -42.00 03/08/2022 16:15:24 1.30, -42.73 83.35 522
5 03/11/2022 07:51:38 -4.04, -94.25 03/11/2022 07:42:14 -3.94, -94.84 67.23 564
6 03/11/2022 08:39:54 -0.48, 74.34 03/11/2022 08:31:45 -0.66, 73.48 97.62 489
7 03/13/2022 23:22:13 17.09,-148.84 03/13/2022 23:12:13 17.12,-149.43 63.60 600
8 03/14/2022 00:07:28 -2.16, 22.08 03/13/2022 23:58:36 -1.98, 21.36 81.78 532
9 03/16/2022 15:35:08 4.66, -30.19 03/16/2022 15:25:34 4.53, -30.77 65.64 574
10 03/16/2022 16:23:14 -0.06, 138.45 03/16/2022 16:14:56 0.10, 137.60 96.23 498
